Wind_Speed
8 7 7 6 5 4 3 2 2 3 4 4 4 3 2 3 4 4 4 6 7 7 5 4 5 4 3 3 2 2 2 3 4 6 5 5 5 4 5 3 5 9 10 9 9 12 11
9 8 6 6 5 5 5 5 5 5 6 5 5 4 3 4 4 3 4 6 6 6 6 4 5 4 5 5 5 5 4 5 6 7 7 6 5 6 5 6 8 6 8 8 10 12 13
10 9 9 8 8 7 7 7 6 7 7 6 6 5 4 4 5 5 5 6 6 6 6 6 5 6 6 6 6 5 6 6 5 6 7 6 6 6 5 6 8 8 8 9 12 13 16
11 11 11 10 9 9 9 9 9 8 8 7 7 6 6 6 5 5 6 6 7 7 8 5 6 8 8 7 5 4 3 4 6 6 6 6 6 6 6 6 5 6 8 9 13 12 16
14 14 14 12 11 11 10 10 10 9 9 8 7 7 7 7 7 7 6 7 8 9 8 7 10 6 7 6 5 5 7 7 6 6 5 4 4 4 5 5 4 6 7 9 13 14 17
14 14 14 13 12 12 12 11 11 10 10 9 8 8 8 8 7 7 6 7 7 9 7 12 6 9 8 7 9 10 8 7 6 5 3 3 3 4 5 7 2 4 8 7 13 16 19
14 14 14 14 13 13 13 12 12 12 12 10 9 9 9 9 8 8 6 7 8 7 10 10 13 13 12 12 11 8 6 4 3 3 3 2 3 2 3 7 14 12 11 10 9 15 19
16 15 15 15 15 14 13 13 12 12 12 11 11 10 10 10 10 9 8 8 8 9 11 12 9 7 6 6 6 4 2 3 3 3 3 3 3 8 9 11 10 11 10 9 13 19 21
17 16 16 15 15 15 14 14 13 12 12 12 11 10 11 11 11 10 9 8 8 10 12 5 3 4 1 2 4 3 3 3 3 4 4 6 6 6 8 8 8 8 10 10 12 18 23
18 18 16 16 15 15 15 14 13 13 13 13 12 12 12 12 10 10 9 9 8 9 7 3 2 2 5 6 6 4 4 2 3 2 3 6 5 7 9 10 11 11 15 18 18 17 9
20 19 19 16 16 16 16 15 14 14 14 13 13 12 12 12 11 10 9 9 8 7 2 4 3 7 3 2 1 3 3 4 4 5 6 7 10 11 12 15 13 14 16 17 18 18 17
24 23 21 19 17 17 16 16 15 15 14 13 13 13 12 11 12 11 9 8 7 3 5 6 6 8 1 3 3 3 5 7 7 9 10 14 13 15 15 13 14 15 17 18 15 12 6
29 28 26 24 22 19 18 17 16 15 15 14 13 13 13 12 11 10 9 7 4 6 4 5 7 7 7 6 8 10 10 8 6 6 7 11 14 15 15 15 14 12 9 5 3 2 6
27 32 32 30 27 24 21 19 18 16 14 13 13 14 14 13 12 11 10 9 9 7 10 6 8 11 10 11 12 8 6 9 12 13 12 7 7 7 6 10 10 10 8 6 5 3 3
43 30 32 30 32 29 26 23 22 20 18 17 14 13 12 12 13 13 13 13 6 10 9 10 8 12 13 7 8 6 9 14 14 9 8 5 6 7 7 9 10 8 10 12 10 19 12
41 31 34 33 32 31 31 28 25 23 22 21 19 18 16 15 14 14 16 17 13 13 12 12 11 9 6 10 7 6 7 7 8 9 11 10 9 13 14 14 15 17 11 6 6 3 5
42 41 38 32 33 31 33 31 31 28 27 24 23 22 19 18 18 18 21 19 19 17 16 15 15 15 11 12 12 10 9 11 13 14 13 14 12 9 10 10 13 16 20 15 15 13 3
32 43 39 39 28 21 27 32 32 32 35 29 28 26 23 21 21 21 23 23 20 18 17 16 17 18 18 18 13 13 15 16 9 10 13 13 8 11 15 14 16 18 17 16 12 5 12
29 36 40 45 31 27 25 25 28 31 32 31 32 31 29 24 25 25 24 24 20 21 20 18 14 13 12 13 9 12 17 16 16 16 9 6 8 6 6 13 15 18 19 20 24 27 29
28 28 32 30 37 36 32 20 15 23 28 34 32 28 30 31 30 26 27 23 22 23 18 18 17 15 15 14 14 12 15 14 14 15 16 16 19 22 19 16 16 18 18 20 25 26 32
26 26 27 26 29 37 39 23 21 19 24 16 21 30 22 18 30 30 28 23 18 16 19 15 14 15 14 13 15 20 22 22 21 19 20 20 25 26 27 30 31 32 34 35 33 36 35
24 26 21 27 25 32 39 43 30 26 25 24 26 24 22 29 26 19 20 21 22 21 21 21 21 17 16 17 18 20 20 19 18 17 18 21 23 23 28 27 31 33 31 31 33 33 37
28 25 23 22 28 30 28 35 36 24 29 33 28 27 27 24 25 26 25 23 21 18 20 23 21 19 18 19 19 20 23 22 23 21 21 20 20 18 13 17 20 23 23 23 27 29 30
27 27 25 23 22 25 29 33 52 36 36 28 30 23 27 32 29 25 26 23 20 18 20 18 18 20 21 18 19 21 22 23 24 25 24 26 23 19 15 17 5 9 8 11 15 20 23
28 25 22 21 23 25 25 30 31 34 28 31 31 27 31 29 26 27 30 26 24 22 24 22 22 23 22 21 19 15 16 20 24 27 27 29 27 13 7 10 19 27 24 17 12 16 19
28 25 23 21 20 20 25 28 30 30 34 25 30 31 30 26 29 28 32 27 25 28 26 23 24 24 23 20 18 11 8 7 6 6 11 17 23 22 12 6 5 6 8 14 18 22 15
27 24 21 20 19 18 20 25 29 32 29 30 29 31 26 29 32 25 27 27 29 35 28 26 25 23 21 23 22 17 14 13 8 8 8 13 17 26 24 10 11 19 21 19 8 8 13
21 21 20 18 16 17 19 20 25 33 32 28 27 25 34 33 28 23 29 31 30 34 27 24 23 25 24 24 17 16 14 14 15 16 10 10 8 12 14 9 13 16 14 12 17 23 27
18 18 17 17 17 16 19 20 21 28 32 36 30 28 26 29 32 27 32 29 32 31 28 31 29 21 16 15 18 13 15 13 15 10 15 13 16 9 14 10 18 21 21 22 27 27 26
Wind_Direction
201 201 202 201 209 223 232 252 275 293 310 325 323 309 316 324 333 339 351 1 360 350 339 331 333 330 283 250 213 265 262 274 278 286 278 261 244 226 233 244 223 236 236 242 233 241 246
213 214 226 232 231 245 258 259 274 288 300 308 302 292 288 300 315 328 334 346 349 351 337 320 312 315 314 288 277 282 271 272 281 283 281 271 250 246 239 244 234 266 252 238 234 235 241
230 226 225 233 239 244 259 267 274 282 285 286 283 280 279 285 301 307 311 326 338 349 348 330 312 300 297 293 291 285 278 280 283 282 280 266 251 242 246 232 241 255 250 247 248 249 253
240 235 236 234 241 246 252 264 266 268 269 272 274 277 272 277 283 283 294 312 327 337 343 338 324 308 287 280 270 264 274 288 292 291 281 266 249 234 239 235 244 239 250 253 266 262 263
244 244 243 240 242 251 256 257 259 263 265 262 264 268 264 268 276 279 290 304 319 331 336 331 323 303 281 266 249 262 286 289 289 287 275 257 237 228 222 224 241 247 260 253 259 272 271
242 247 247 243 238 239 245 248 255 257 258 259 260 261 262 260 261 268 280 297 312 323 328 327 316 302 291 271 263 278 279 287 285 274 250 229 215 221 218 193 130 254 255 264 260 279 279
242 242 248 248 243 242 245 248 248 253 257 258 259 256 255 260 262 267 277 297 309 320 323 316 301 291 281 280 279 277 274 264 239 211 207 211 209 26 266 229 228 248 244 247 273 269 273
245 242 243 247 250 246 247 248 251 253 256 257 254 255 257 257 258 267 283 299 312 315 322 317 309 299 281 273 269 270 235 185 167 154 145 113 168 228 247 251 254 255 258 264 265 268 277
249 242 244 243 247 248 250 248 249 253 255 256 257 254 252 253 255 261 268 280 297 312 318 314 353 37 75 129 132 137 139 145 154 159 170 175 232 256 260 265 269 273 272 244 260 274 278
252 252 242 242 245 246 247 251 253 255 255 255 253 251 250 253 254 259 265 276 290 305 299 241 186 118 92 126 110 122 134 139 216 236 227 253 274 268 278 281 277 276 262 269 275 280 276
249 249 250 241 241 246 248 246 248 249 252 255 256 257 257 256 255 254 255 261 276 301 340 212 201 159 113 123 178 200 254 262 260 252 252 264 272 277 275 268 274 264 274 282 284 279 277
244 244 244 245 239 241 245 246 246 247 247 250 255 260 260 262 261 256 255 261 272 264 253 201 199 176 279 268 264 269 277 273 272 268 260 265 271 273 271 281 278 284 288 293 289 287 271
245 246 247 247 245 240 240 244 244 244 245 245 247 250 252 253 255 257 255 250 252 225 232 220 200 223 293 279 280 283 278 268 261 280 277 278 277 278 275 273 275 280 289 321 281 205 231
251 248 245 245 248 246 244 245 246 248 247 243 243 244 243 241 240 239 237 230 225 237 226 216 216 266 266 285 284 266 246 268 268 260 261 268 291 274 269 265 266 271 219 206 257 247 255
251 247 246 248 241 243 247 246 246 245 247 246 241 237 234 234 235 234 228 219 226 235 236 236 247 270 272 252 233 258 270 262 273 260 209 226 246 261 264 266 265 244 225 239 268 280 278
248 244 243 238 244 245 243 244 244 243 242 242 239 236 232 233 232 232 230 233 232 233 242 243 252 249 230 262 246 259 255 253 260 243 240 252 274 264 258 257 252 236 234 230 221 290 267
261 261 268 242 240 243 240 237 237 241 241 241 240 238 231 235 235 231 234 243 250 246 243 248 244 240 231 239 247 239 234 259 260 260 254 261 246 260 256 251 249 243 241 237 241 239 235
255 247 255 236 242 224 235 239 235 232 241 241 238 240 240 237 236 236 241 247 253 252 251 247 250 249 249 256 265 260 240 250 244 252 255 257 260 247 261 268 252 248 234 235 230 228 240
254 253 252 242 257 226 231 232 234 236 236 238 237 239 241 238 237 243 249 253 250 254 252 251 248 240 244 250 259 246 253 258 259 261 254 229 243 285 263 252 254 250 251 253 254 258 257
255 251 253 258 247 244 235 240 237 219 226 231 237 231 233 236 240 244 254 253 248 254 254 251 248 258 260 259 262 258 263 270 262 261 259 261 245 244 247 270 289 275 262 264 262 260 261
251 253 252 245 252 238 223 215 239 235 218 211 232 227 210 226 238 242 243 246 255 246 248 239 255 265 260 261 264 263 263 270 266 266 262 261 263 266 262 262 268 274 279 276 261 262 255
254 247 252 242 246 257 235 228 233 240 233 232 235 234 225 230 236 224 235 237 248 262 254 253 265 263 262 265 260 270 272 271 269 266 262 260 264 269 271 277 279 274 274 276 269 262 257
245 248 250 254 247 244 249 230 220 227 239 236 233 244 232 232 233 241 246 255 259 263 261 258 255 256 262 268 278 266 265 268 267 272 268 255 254 274 279 284 285 284 277 264 264 264 264
250 249 250 248 247 247 238 245 235 252 244 243 241 233 245 242 241 239 246 252 255 260 255 248 252 266 274 269 268 266 264 266 264 261 259 256 259 262 279 293 258 262 266 273 265 265 263
243 244 246 249 249 248 248 243 243 238 236 238 235 240 244 247 240 245 242 238 253 257 254 253 261 266 264 265 265 265 267 265 258 257 250 252 252 243 244 225 273 282 276 280 270 274 271
242 242 245 245 247 249 250 247 245 255 240 236 248 255 245 251 254 253 245 236 244 264 253 264 263 264 265 260 248 234 219 233 251 242 224 234 233 227 211 234 251 255 285 288 294 283 275
240 238 239 244 248 249 248 245 234 245 244 234 255 240 258 250 272 258 261 241 259 258 246 264 254 256 257 249 240 233 233 227 239 233 225 226 220 222 227 245 261 269 278 285 275 286 290
233 232 233 237 240 248 251 250 242 235 237 235 246 248 252 248 261 267 263 253 250 244 259 262 259 254 247 234 231 231 231 232 239 244 244 239 223 221 219 233 259 262 267 271 291 296 299
225 228 229 234 235 242 248 249 246 238 225 229 244 238 242 264 264 257 268 272 272 266 257 260 247 243 220 219 218 224 227 230 230 233 243 245 231 230 222 235 263 278 288 292 299 300 303
Height
3154 3155 3155 3156 3157 3157 3157 3158 3158 3159 3158 3158 3157 3157 3157 3157 3157 3156 3154 3153 3153 3152 3152 3151 3150 3149 3149 3149 3149 3149 3149 3149 3150 3150 3151 3151 3152 3152 3153 3153 3154 3154 3155 3156 3157 3158 3160
3153 3154 3155 3156 3156 3156 3157 3157 3157 3158 3157 3157 3157 3157 3157 3157 3156 3155 3154 3153 3152 3152 3151 3150 3149 3148 3148 3149 3148 3147 3148 3148 3149 3149 3149 3150 3151 3151 3152 3152 3153 3153 3154 3155 3155 3156 3157
3153 3153 3153 3154 3155 3155 3156 3156 3156 3156 3156 3156 3155 3155 3155 3155 3155 3155 3154 3153 3152 3151 3149 3149 3148 3146 3146 3148 3146 3146 3146 3147 3147 3148 3148 3148 3149 3150 3151 3152 3152 3152 3153 3153 3153 3155 3155
3152 3152 3152 3152 3153 3153 3153 3154 3154 3154 3155 3154 3154 3154 3153 3154 3154 3154 3153 3152 3151 3150 3148 3147 3146 3145 3144 3145 3144 3144 3144 3145 3146 3146 3146 3146 3147 3148 3149 3150 3151 3151 3152 3151 3151 3152 3153
3150 3150 3151 3150 3150 3151 3151 3152 3152 3152 3153 3152 3152 3152 3152 3152 3153 3153 3152 3151 3150 3148 3147 3146 3145 3143 3143 3143 3143 3143 3143 3143 3144 3144 3144 3145 3146 3147 3148 3149 3150 3150 3150 3150 3149 3150 3149
3146 3148 3149 3148 3148 3148 3149 3149 3150 3150 3151 3150 3149 3150 3150 3150 3151 3151 3150 3149 3147 3146 3145 3144 3143 3145 3143 3142 3141 3141 3141 3141 3141 3142 3143 3144 3145 3145 3147 3147 3149 3149 3148 3150 3149 3148 3145
3144 3144 3146 3146 3146 3146 3146 3146 3146 3147 3148 3147 3148 3148 3148 3148 3148 3149 3148 3147 3148 3146 3143 3142 3141 3139 3139 3139 3139 3139 3139 3139 3139 3140 3141 3142 3144 3145 3147 3146 3146 3147 3147 3147 3147 3145 3144
3142 3141 3142 3143 3144 3144 3144 3144 3144 3145 3145 3145 3145 3145 3146 3146 3146 3145 3145 3144 3143 3143 3141 3138 3136 3135 3135 3135 3137 3137 3138 3139 3138 3138 3140 3143 3143 3144 3145 3145 3145 3144 3144 3144 3144 3142 3142
3140 3138 3138 3140 3140 3140 3141 3141 3141 3142 3142 3142 3143 3143 3143 3143 3143 3143 3143 3142 3141 3139 3138 3136 3135 3134 3134 3135 3135 3136 3137 3137 3137 3137 3139 3140 3142 3142 3142 3142 3142 3142 3142 3142 3142 3138 3137
3136 3137 3135 3136 3137 3137 3137 3137 3138 3139 3139 3140 3140 3140 3140 3140 3142 3140 3141 3140 3139 3138 3136 3136 3135 3135 3135 3134 3135 3135 3136 3138 3137 3138 3138 3139 3140 3140 3140 3140 3140 3139 3139 3138 3138 3136 3134
3133 3134 3134 3132 3132 3134 3134 3134 3135 3136 3136 3136 3136 3137 3137 3138 3138 3138 3139 3138 3137 3137 3136 3135 3134 3134 3134 3135 3135 3135 3135 3135 3135 3136 3138 3137 3137 3137 3137 3136 3136 3135 3135 3135 3134 3132 3130
3128 3129 3131 3131 3130 3130 3131 3131 3131 3132 3132 3132 3133 3133 3134 3135 3136 3136 3135 3136 3136 3138 3132 3131 3131 3132 3133 3132 3133 3133 3133 3133 3133 3133 3134 3133 3134 3133 3133 3133 3134 3133 3133 3132 3130 3129 3126
3122 3123 3125 3127 3127 3127 3127 3128 3128 3128 3128 3128 3128 3129 3131 3131 3133 3133 3133 3134 3136 3132 3131 3130 3129 3130 3131 3131 3130 3130 3130 3130 3131 3131 3130 3130 3129 3130 3130 3130 3130 3130 3131 3131 3131 3129 3122
3113 3115 3118 3120 3122 3123 3123 3123 3124 3124 3124 3124 3124 3125 3126 3127 3128 3129 3130 3132 3131 3126 3126 3126 3126 3127 3127 3128 3127 3126 3127 3127 3127 3127 3128 3127 3126 3126 3127 3127 3127 3127 3127 3127 3124 3119 3115
3106 3107 3109 3112 3115 3117 3119 3119 3119 3119 3120 3120 3121 3121 3122 3123 3124 3125 3127 3126 3124 3122 3122 3123 3124 3123 3123 3123 3125 3124 3124 3123 3123 3123 3125 3124 3124 3123 3124 3124 3126 3123 3123 3124 3121 3117 3114
3096 3099 3102 3104 3107 3109 3111 3113 3114 3114 3115 3116 3117 3118 3119 3120 3120 3121 3122 3120 3119 3119 3119 3120 3120 3120 3120 3119 3122 3122 3121 3120 3119 3120 3119 3119 3119 3119 3119 3120 3120 3120 3121 3121 3121 3119 3109
3086 3090 3094 3095 3097 3100 3102 3104 3106 3108 3109 3111 3112 3113 3114 3115 3116 3116 3115 3115 3115 3116 3116 3117 3116 3116 3117 3116 3117 3117 3117 3117 3115 3116 3116 3115 3116 3116 3115 3114 3113 3115 3114 3115 3115 3114 3109
3077 3082 3086 3087 3090 3092 3094 3095 3097 3099 3102 3104 3105 3106 3109 3109 3112 3109 3109 3110 3111 3111 3112 3112 3111 3111 3112 3112 3112 3113 3112 3112 3111 3111 3111 3112 3110 3110 3110 3109 3109 3108 3108 3109 3109 3107 3104
3070 3073 3077 3080 3081 3084 3085 3087 3089 3090 3092 3096 3096 3099 3101 3102 3102 3104 3104 3105 3105 3106 3106 3106 3106 3105 3106 3108 3109 3106 3106 3107 3107 3107 3106 3108 3106 3107 3103 3104 3103 3102 3103 3106 3104 3101 3094
3060 3064 3068 3070 3076 3078 3080 3079 3080 3082 3083 3087 3089 3089 3092 3093 3095 3098 3098 3099 3100 3100 3100 3101 3101 3102 3102 3103 3103 3101 3102 3103 3103 3104 3103 3103 3101 3101 3099 3099 3097 3097 3097 3099 3099 3095 3087
3053 3055 3059 3063 3066 3070 3072 3073 3074 3073 3076 3078 3080 3081 3082 3083 3087 3090 3091 3092 3093 3094 3095 3095 3096 3097 3097 3096 3095 3095 3095 3099 3098 3098 3098 3098 3095 3096 3094 3093 3093 3090 3088 3090 3086 3083 3083
3047 3049 3051 3054 3056 3061 3065 3065 3066 3066 3070 3071 3073 3075 3075 3077 3081 3083 3084 3086 3088 3088 3090 3091 3092 3092 3092 3092 3090 3089 3090 3089 3091 3091 3092 3091 3088 3087 3084 3088 3086 3079 3080 3076 3076 3075 3073
3042 3043 3045 3047 3050 3053 3056 3058 3059 3061 3063 3063 3066 3067 3069 3070 3073 3076 3078 3081 3082 3083 3084 3084 3086 3086 3086 3085 3085 3085 3084 3084 3083 3084 3085 3086 3086 3082 3077 3079 3077 3070 3068 3066 3066 3064 3066
3034 3036 3038 3040 3043 3046 3049 3052 3052 3054 3056 3057 3059 3061 3063 3065 3066 3070 3073 3075 3076 3078 3078 3078 3080 3081 3081 3078 3077 3079 3079 3078 3077 3074 3076 3076 3079 3081 3076 3076 3073 3061 3061 3061 3060 3059 3060
3028 3030 3032 3034 3035 3039 3042 3044 3046 3047 3048 3049 3050 3053 3055 3056 3060 3063 3066 3066 3069 3070 3072 3071 3073 3073 3074 3073 3071 3072 3070 3071 3068 3067 3070 3070 3071 3072 3073 3069 3061 3056 3056 3056 3055 3056 3054
3021 3023 3026 3028 3031 3032 3035 3036 3039 3040 3043 3044 3042 3045 3047 3049 3050 3054 3055 3058 3061 3063 3063 3065 3067 3065 3067 3067 3067 3064 3062 3064 3062 3060 3060 3062 3065 3067 3067 3065 3059 3051 3051 3051 3051 3047 3046
3014 3016 3019 3023 3025 3027 3029 3030 3031 3034 3037 3038 3037 3036 3039 3041 3043 3046 3048 3051 3054 3054 3053 3055 3057 3058 3059 3059 3060 3058 3057 3058 3056 3054 3055 3057 3058 3058 3059 3058 3051 3048 3046 3046 3049 3048 3042
3010 3012 3015 3017 3020 3022 3022 3023 3025 3025 3029 3033 3031 3030 3034 3034 3037 3039 3041 3043 3043 3044 3045 3047 3049 3047 3051 3052 3052 3051 3049 3049 3049 3049 3049 3051 3053 3052 3054 3055 3048 3042 3042 3046 3042 3039 3038
3007 3009 3011 3013 3015 3016 3017 3018 3017 3019 3022 3025 3026 3024 3027 3028 3030 3033 3034 3036 3038 3039 3040 3038 3039 3040 3043 3043 3044 3043 3043 3041 3043 3042 3042 3046 3045 3044 3047 3043 3040 3038 3037 3036 3035 3034 3033